Time,TemperatureF,DewpointF,PressureIn,WindDirection,WindDirectionDegrees,WindSpeedMPH,WindSpeedGustMPH,Humidity,HourlyPrecipIn,Conditions,Clouds,dailyrainin,SoftwareType,DateUTC
2013-02-07 00:00:00,17.0,-4.0,30.27,SSW,212,6.0,6.0,40,0.00,,,0.00,weatherlink.com 1.10,2013-02-07 05:00:00,
2013-02-07 00:15:00,16.4,-4.0,30.27,SSE,162,2.0,8.0,41,0.00,,,0.00,weatherlink.com 1.10,2013-02-07 05:15:00,
2013-02-07 00:30:00,15.9,-3.0,30.28,South,190,3.0,6.0,44,0.00,,,0.00,weatherlink.com 1.10,2013-02-07 05:30:00,
2013-02-07 00:45:00,15.4,-4.0,30.28,SE,143,3.0,8.0,42,0.00,,,0.00,weatherlink.com 1.10,2013-02-07 05:45:00,
2013-02-07 01:00:00,15.0,-4.0,30.28,South,174,2.0,8.0,43,0.00,,,0.00,weatherlink.com 1.10,2013-02-07 06:00:00,
2013-02-07 01:15:00,14.5,-3.0,30.29,SSE,153,1.0,5.0,45,0.00,,,0.00,weatherlink.com 1.10,2013-02-07 06:15:00,
2013-02-07 01:30:00,14.1,-4.0,30.30,South,172,0.0,4.0,45,0.00,,,0.00,weatherlink.com 1.10,2013-02-07 06:30:00,
2013-02-07 01:46:00,13.8,-4.0,30.30,SE,146,1.0,5.0,45,0.00,,,0.00,weatherlink.com 1.10,2013-02-07 06:46:00,
2013-02-07 02:01:00,13.6,-4.0,30.31,South,176,0.0,5.0,45,0.00,,,0.00,weatherlink.com 1.10,2013-02-07 07:01:00,
2013-02-07 02:16:00,13.4,-4.0,30.32,SSE,159,0.0,5.0,46,0.00,,,0.00,weatherlink.com 1.10,2013-02-07 07:16:00,
2013-02-07 02:31:00,13.2,-4.0,30.34,SSE,150,2.0,7.0,46,0.00,,,0.00,weatherlink.com 1.10,2013-02-07 07:31:00,
2013-02-07 02:46:00,12.9,-4.0,30.33,SSE,151,0.0,6.0,46,0.00,,,0.00,weatherlink.com 1.10,2013-02-07 07:46:00,
2013-02-07 03:01:00,12.8,-4.0,30.32,SSW,195,2.0,9.0,47,0.00,,,0.00,weatherlink.com 1.10,2013-02-07 08:01:00,
2013-02-07 03:16:00,12.5,-4.0,30.33,South,180,5.0,7.0,48,0.00,,,0.00,weatherlink.com 1.10,2013-02-07 08:16:00,
2013-02-07 03:31:00,12.1,-4.0,30.33,South,186,5.0,7.0,49,0.00,,,0.00,weatherlink.com 1.10,2013-02-07 08:31:00,
2013-02-07 03:46:00,11.9,-4.0,30.33,SSE,160,4.0,8.0,49,0.00,,,0.00,weatherlink.com 1.10,2013-02-07 08:46:00,
2013-02-07 04:01:00,11.7,-4.0,30.35,SSE,148,3.0,5.0,50,0.00,,,0.00,weatherlink.com 1.10,2013-02-07 09:01:00,
2013-02-07 04:16:00,11.6,-3.0,30.36,SSE,156,1.0,6.0,52,0.00,,,0.00,weatherlink.com 1.10,2013-02-07 09:16:00,
2013-02-07 04:31:00,11.4,-2.0,30.37,SSE,162,1.0,2.0,54,0.00,,,0.00,weatherlink.com 1.10,2013-02-07 09:31:00,
2013-02-07 04:46:00,11.0,-2.0,30.37,South,184,1.0,2.0,56,0.00,,,0.00,weatherlink.com 1.10,2013-02-07 09:46:00,
2013-02-07 05:02:00,10.8,-3.0,30.38,SSE,165,2.0,3.0,54,0.00,,,0.00,weatherlink.com 1.10,2013-02-07 10:02:00,
2013-02-07 05:17:00,10.6,-4.0,30.40,SSE,158,0.0,2.0,53,0.00,,,0.00,weatherlink.com 1.10,2013-02-07 10:17:00,
2013-02-07 05:32:00,10.4,-4.0,30.41,South,171,0.0,3.0,52,0.00,,,0.00,weatherlink.com 1.10,2013-02-07 10:32:00,
2013-02-07 05:47:00,10.4,-4.0,30.41,South,176,0.0,3.0,53,0.00,,,0.00,weatherlink.com 1.10,2013-02-07 10:47:00,
2013-02-07 06:02:00,10.0,-5.0,30.42,SSE,148,0.0,3.0,51,0.00,,,0.00,weatherlink.com 1.10,2013-02-07 11:02:00,
2013-02-07 06:17:00,9.8,-6.0,30.42,SSE,155,1.0,3.0,50,0.00,,,0.00,weatherlink.com 1.10,2013-02-07 11:17:00,
2013-02-07 06:32:00,9.8,-5.0,30.43,SSE,165,0.0,4.0,52,0.00,,,0.00,weatherlink.com 1.10,2013-02-07 11:32:00,
2013-02-07 06:47:00,9.4,-6.0,30.44,SSE,162,0.0,2.0,51,0.00,,,0.00,weatherlink.com 1.10,2013-02-07 11:47:00,
2013-02-07 07:02:00,9.2,-5.0,30.45,SSE,150,0.0,2.0,52,0.00,,,0.00,weatherlink.com 1.10,2013-02-07 12:02:00,
2013-02-07 07:17:00,9.9,-5.0,30.46,SSE,165,1.0,4.0,51,0.00,,,0.00,weatherlink.com 1.10,2013-02-07 12:17:00,
2013-02-07 07:32:00,10.1,-5.0,30.46,South,188,4.0,6.0,50,0.00,,,0.00,weatherlink.com 1.10,2013-02-07 12:32:00,
2013-02-07 07:47:00,10.7,-5.0,30.47,SSE,165,3.0,5.0,50,0.00,,,0.00,weatherlink.com 1.10,2013-02-07 12:47:00,
2013-02-07 08:02:00,11.5,-6.0,30.47,SSE,150,0.0,6.0,46,0.00,,,0.00,weatherlink.com 1.10,2013-02-07 13:02:00,
2013-02-07 08:17:00,10.7,-6.0,30.48,SW,218,6.0,7.0,48,0.00,,,0.00,weatherlink.com 1.10,2013-02-07 13:17:00,
2013-02-07 08:33:00,11.7,-4.0,30.49,SSE,165,0.0,5.0,50,0.00,,,0.00,weatherlink.com 1.10,2013-02-07 13:33:00,
2013-02-07 08:48:00,12.0,-6.0,30.50,SSE,165,2.0,5.0,44,0.00,,,0.00,weatherlink.com 1.10,2013-02-07 13:48:00,
2013-02-07 09:03:00,12.0,-6.0,30.50,South,176,1.0,6.0,44,0.00,,,0.00,weatherlink.com 1.10,2013-02-07 14:03:00,
2013-02-07 09:18:00,12.4,-7.0,30.50,SSE,162,1.0,10.0,42,0.00,,,0.00,weatherlink.com 1.10,2013-02-07 14:18:00,
2013-02-07 09:33:00,13.3,-5.0,30.50,SSE,160,0.0,6.0,43,0.00,,,0.00,weatherlink.com 1.10,2013-02-07 14:33:00,
2013-02-07 09:48:00,14.1,-5.0,30.51,SSE,163,2.0,6.0,42,0.00,,,0.00,weatherlink.com 1.10,2013-02-07 14:48:00,
2013-02-07 10:03:00,13.2,-10.0,30.52,SSW,200,8.0,10.0,35,0.00,,,0.00,weatherlink.com 1.10,2013-02-07 15:03:00,
2013-02-07 10:18:00,13.4,-9.0,30.53,SE,143,4.0,7.0,36,0.00,,,0.00,weatherlink.com 1.10,2013-02-07 15:18:00,
2013-02-07 10:33:00,13.4,-10.0,30.53,SSE,163,2.0,9.0,35,0.00,,,0.00,weatherlink.com 1.10,2013-02-07 15:33:00,
2013-02-07 10:48:00,14.4,-10.0,30.53,South,176,4.0,9.0,33,0.00,,,0.00,weatherlink.com 1.10,2013-02-07 15:48:00,
2013-02-07 11:03:00,14.8,-7.0,30.53,SW,218,8.0,9.0,37,0.00,,,0.00,weatherlink.com 1.10,2013-02-07 16:03:00,
2013-02-07 11:18:00,15.0,-9.0,30.52,South,178,2.0,10.0,33,0.00,,,0.00,weatherlink.com 1.10,2013-02-07 16:18:00,
2013-02-07 11:33:00,15.5,-10.0,30.52,SSW,200,3.0,6.0,32,0.00,,,0.00,weatherlink.com 1.10,2013-02-07 16:33:00,
2013-02-07 11:49:00,15.8,-9.0,30.52,South,181,1.0,8.0,32,0.00,,,0.00,weatherlink.com 1.10,2013-02-07 16:49:00,
2013-02-07 12:04:00,16.1,-9.0,30.51,SSE,167,1.0,10.0,32,0.00,,,0.00,weatherlink.com 1.10,2013-02-07 17:04:00,
2013-02-07 12:19:00,15.8,-9.0,30.51,South,183,4.0,10.0,32,0.00,,,0.00,weatherlink.com 1.10,2013-02-07 17:19:00,
2013-02-07 12:34:00,16.0,-9.0,30.50,SSE,155,2.0,8.0,32,0.00,,,0.00,weatherlink.com 1.10,2013-02-07 17:34:00,
2013-02-07 12:49:00,16.7,-7.0,30.50,South,191,3.0,10.0,35,0.00,,,0.00,weatherlink.com 1.10,2013-02-07 17:49:00,
2013-02-07 13:04:00,16.7,-9.0,30.50,SSE,156,4.0,8.0,32,0.00,,,0.00,weatherlink.com 1.10,2013-02-07 18:04:00,
2013-02-07 13:19:00,17.1,-6.0,30.50,SSW,194,4.0,7.0,36,0.00,,,0.00,weatherlink.com 1.10,2013-02-07 18:19:00,
2013-02-07 13:34:00,17.2,-6.0,30.50,South,174,1.0,8.0,35,0.00,,,0.00,weatherlink.com 1.10,2013-02-07 18:34:00,
2013-02-07 13:49:00,17.4,-7.0,30.50,South,177,4.0,7.0,33,0.00,,,0.00,weatherlink.com 1.10,2013-02-07 18:49:00,
2013-02-07 14:04:00,17.9,-7.0,30.50,SSW,200,4.0,7.0,33,0.00,,,0.00,weatherlink.com 1.10,2013-02-07 19:04:00,
2013-02-07 14:19:00,18.0,-8.0,30.49,SSE,153,1.0,6.0,31,0.00,,,0.00,weatherlink.com 1.10,2013-02-07 19:19:00,
2013-02-07 14:34:00,18.2,-7.0,30.50,South,190,0.0,5.0,32,0.00,,,0.00,weatherlink.com 1.10,2013-02-07 19:34:00,
2013-02-07 14:49:00,17.7,-8.0,30.50,SSW,195,3.0,7.0,32,0.00,,,0.00,weatherlink.com 1.10,2013-02-07 19:49:00,
2013-02-07 15:04:00,17.9,-7.0,30.50,South,181,1.0,7.0,32,0.00,,,0.00,weatherlink.com 1.10,2013-02-07 20:04:00,
2013-02-07 15:20:00,18.2,-9.0,30.50,South,188,1.0,7.0,30,0.00,,,0.00,weatherlink.com 1.10,2013-02-07 20:20:00,
2013-02-07 15:35:00,17.7,-10.0,30.51,SSE,153,0.0,5.0,28,0.00,,,0.00,weatherlink.com 1.10,2013-02-07 20:35:00,
2013-02-07 15:50:00,17.7,-10.0,30.51,South,169,2.0,4.0,29,0.00,,,0.00,weatherlink.com 1.10,2013-02-07 20:50:00,
2013-02-07 16:05:00,17.3,-10.0,30.51,SSW,201,4.0,5.0,29,0.00,,,0.00,weatherlink.com 1.10,2013-02-07 21:05:00,
2013-02-07 16:20:00,17.2,-9.0,30.52,South,181,1.0,5.0,31,0.00,,,0.00,weatherlink.com 1.10,2013-02-07 21:20:00,
2013-02-07 16:35:00,16.8,-8.0,30.51,South,179,2.0,5.0,32,0.00,,,0.00,weatherlink.com 1.10,2013-02-07 21:35:00,
2013-02-07 16:50:00,16.4,-9.0,30.52,South,177,1.0,4.0,32,0.00,,,0.00,weatherlink.com 1.10,2013-02-07 21:50:00,
2013-02-07 17:05:00,16.3,-8.0,30.53,SSW,200,2.0,4.0,33,0.00,,,0.00,weatherlink.com 1.10,2013-02-07 22:05:00,
2013-02-07 17:20:00,16.1,-8.0,30.53,SSW,211,3.0,5.0,33,0.00,,,0.00,weatherlink.com 1.10,2013-02-07 22:20:00,
2013-02-07 17:35:00,16.0,-6.0,30.53,SW,224,4.0,5.0,37,0.00,,,0.00,weatherlink.com 1.10,2013-02-07 22:35:00,
2013-02-07 17:50:00,15.2,-7.0,30.54,SW,217,3.0,3.0,36,0.00,,,0.00,weatherlink.com 1.10,2013-02-07 22:50:00,
2013-02-07 18:05:00,14.6,-7.0,30.54,SW,218,3.0,5.0,37,0.00,,,0.00,weatherlink.com 1.10,2013-02-07 23:05:00,
2013-02-07 18:20:00,14.2,-7.0,30.54,SW,231,5.0,6.0,39,0.00,,,0.00,weatherlink.com 1.10,2013-02-07 23:20:00,
2013-02-07 18:35:00,13.8,-6.0,30.55,SSW,200,2.0,6.0,42,0.00,,,0.00,weatherlink.com 1.10,2013-02-07 23:35:00,
2013-02-07 18:50:00,13.5,-7.0,30.55,WSW,239,5.0,7.0,40,0.00,,,0.00,weatherlink.com 1.10,2013-02-07 23:50:00,
2013-02-07 19:06:00,13.4,-4.0,30.55,SW,214,2.0,5.0,45,0.00,,,0.00,weatherlink.com 1.10,2013-02-08 00:06:00,
2013-02-07 19:21:00,12.8,-7.0,30.55,SSW,207,3.0,6.0,41,0.00,,,0.00,weatherlink.com 1.10,2013-02-08 00:21:00,
2013-02-07 19:36:00,12.4,-7.0,30.56,SSW,197,2.0,4.0,41,0.00,,,0.00,weatherlink.com 1.10,2013-02-08 00:36:00,
2013-02-07 19:51:00,12.2,-8.0,30.57,SSW,211,2.0,3.0,40,0.00,,,0.00,weatherlink.com 1.10,2013-02-08 00:51:00,
2013-02-07 20:06:00,11.9,-7.0,30.58,SSW,197,1.0,2.0,42,0.00,,,0.00,weatherlink.com 1.10,2013-02-08 01:06:00,
2013-02-07 20:21:00,11.5,-7.0,30.58,SSW,195,1.0,2.0,44,0.00,,,0.00,weatherlink.com 1.10,2013-02-08 01:21:00,
2013-02-07 20:36:00,11.1,-7.0,30.58,South,180,1.0,2.0,45,0.00,,,0.00,weatherlink.com 1.10,2013-02-08 01:36:00,
2013-02-07 20:51:00,10.8,-7.0,30.58,SSW,196,2.0,3.0,45,0.00,,,0.00,weatherlink.com 1.10,2013-02-08 01:51:00,
2013-02-07 21:06:00,11.0,-6.0,30.58,SSW,194,2.0,3.0,47,0.00,,,0.00,weatherlink.com 1.10,2013-02-08 02:06:00,
2013-02-07 21:21:00,10.6,-7.0,30.57,SSW,208,3.0,5.0,45,0.00,,,0.00,weatherlink.com 1.10,2013-02-08 02:21:00,
2013-02-07 21:36:00,10.5,-7.0,30.57,SSW,201,2.0,3.0,45,0.00,,,0.00,weatherlink.com 1.10,2013-02-08 02:36:00,
2013-02-07 21:51:00,10.6,-8.0,30.57,South,190,3.0,4.0,43,0.00,,,0.00,weatherlink.com 1.10,2013-02-08 02:51:00,
2013-02-07 22:06:00,10.3,-8.0,30.58,South,174,1.0,3.0,43,0.00,,,0.00,weatherlink.com 1.10,2013-02-08 03:06:00,
2013-02-07 22:21:00,10.2,-8.0,30.58,South,191,2.0,4.0,43,0.00,,,0.00,weatherlink.com 1.10,2013-02-08 03:21:00,
2013-02-07 22:37:00,10.4,-8.0,30.59,South,191,2.0,5.0,44,0.00,,,0.00,weatherlink.com 1.10,2013-02-08 03:37:00,
2013-02-07 22:52:00,10.1,-7.0,30.59,South,181,1.0,3.0,45,0.00,,,0.00,weatherlink.com 1.10,2013-02-08 03:52:00,
2013-02-07 23:07:00,10.0,-7.0,30.58,SSW,198,1.0,3.0,47,0.00,,,0.00,weatherlink.com 1.10,2013-02-08 04:07:00,
2013-02-07 23:22:00,9.9,-6.0,30.57,SSW,203,2.0,4.0,48,0.00,,,0.00,weatherlink.com 1.10,2013-02-08 04:22:00,
2013-02-07 23:37:00,10.1,-4.0,30.56,SW,215,4.0,5.0,53,0.00,,,0.00,weatherlink.com 1.10,2013-02-08 04:37:00,
2013-02-07 23:52:00,10.7,-3.0,30.56,SW,227,5.0,7.0,55,0.00,,,0.00,weatherlink.com 1.10,2013-02-08 04:52:00,